User: anonymous   Login
Location: Unspecified
(0.0000°N, 0.0000°E)
Time: 00:14:27
(UTC+00:00)
Language:

JASON - Orbit

View from above orbital plane
View from above orbital plane
View from above satellite
View from above satellite

Ground track
Ground track

The orbit data is extracted from the following two-line orbital elements,

1 26997U 01055A   18112.63509750 -.00000068 +00000-0 -26637-4 0  9996
2 26997 066.0378 173.3951 0009361 268.2189 248.2766 12.83994601766343
Epoch (UTC): 22 April 2018 15:14:32
Eccentricity: 0.0009361
inclination: 66.0378°
perigee height: 1318 km
apogee height: 1332 km
right ascension of ascending node: 173.3951°
argument of perigee: 268.2189°
revolutions per day: 12.83994601
mean anomaly at epoch: 248.2766°
orbit number at epoch: 76634

The dashed part of the orbit path shows where the satellite is in the earth's shadow,  

DLR